Location: Leipzig
(51.3397°N, 12.3731°E)
Time: 20:29:59
(UTC+01:00)

ISS - Pass Details

Date: 26 October 2025
Orbit: 414 x 421 km, 51.6° (Epoch: 07 November)

Event Time Altitude Azimuth Distance (km) Brightness Sun altitude
Exits shadow 06:11:18 - 280° (W) 1,541 -1.6 -7.2°
Reaches altitude 10° 06:11:23 10° 280° (W) 1,504 -1.6 -7.2°
Maximum altitude 06:14:45 75° 195° (SSW) 440 -3.7 -6.6°
Drops below altitude 10° 06:18:08 10° 110° (ESE) 1,505 0.9 -6.1°
Sets 06:20:14 0° 108° (ESE) 2,369 2.7 -5.8°
